User: anonymous   Login
Location: Caltech
(34.1382°N, 118.1253°W)
Time: 06:52:48
(UTC-07:00)
Language:

Gurwin Techsat 1B - Orbit

View from above orbital plane
View from above orbital plane
View from above satellite
View from above satellite

Ground track
Ground track

The orbit data is extracted from the following two-line orbital elements,

1 25397U 98043D   15212.46655192  .00000009  00000-0  22629-4 0  9993
2 25397 098.5227 161.5278 0001380 144.3699 332.1940 14.23554721886096
Epoch (UTC): 31 July 2015 11:11:50
Eccentricity: 0.0001380
inclination: 98.5227°
perigee height: 812 km
apogee height: 814 km
right ascension of ascending node: 161.5278°
argument of perigee: 144.3699°
revolutions per day: 14.23554721
mean anomaly at epoch: 332.1940°
orbit number at epoch: 88609

The dashed part of the orbit path shows where the satellite is in the earth's shadow,  

DLR